Madisonville, KY

6:37 AM CDT on April 23, 2017 (GMT -0500)
Madisonville

Weather History for K2I0 - December, 2011

Change the Weather History Date:

Thursday, December 15, 2011

  Actual Average (KOWB) Record (KOWB)
Temperature  
Mean Temperature 50 °F -  
Max Temperature 64 °F 47 °F 71 °F (1984)
Min Temperature 37 °F 30 °F 0 °F (1989)
Degree Days  
Heating Degree Days 14    
Moisture  
Dew Point 49 °F    
Average Humidity 78    
Maximum Humidity 94    
Minimum Humidity 63    
Precipitation  
Precipitation 0.18 in - - ()
Sea Level Pressure  
Sea Level Pressure 30.06 in    
Wind  
Wind Speed 13 mph ()    
Max Wind Speed 21 mph    
Max Gust Speed 28 mph    
Visibility 9.8 miles    
Events Rain    
Averages and records for this station are not official NWS values.
T = Trace of Precipitation, MM = Missing Value Source: Averaged Metar Reports

Daily Weather History Graph

Daily Weather History Graph

Search for Another Location

Airport or City:

Trip Planner

Search our weather history database for the weather conditions in past years. The results will help you decide how hot, cold, wet, or windy it might be!

Date:

Astronomy

Dec. 15, 2011 Rise Set
Actual Time 6:56 AM CST 4:32 PM CST
Civil Twilight 6:27 AM CST 5:02 PM CST
Nautical Twilight 5:54 AM CST 5:34 PM CST
Astronomical Twilight 5:22 AM CST 6:06 PM CST
Moon 9:53 PM CST (12/15) 10:17 AM CST (12/15)
Length of Visible Light 10h 34m
Length of Day
9h 36m
Waning Gibbous, 74% of the Moon is Illuminated
Dec 15
Waning Gibbous
Dec 17
Last Quarter
Dec 24
New
Jan 1
First Quarter
Jan 9
Full

Hourly Weather History & Observations

Time (CST) Temp. Windchill Dew Point Humidity Pressure Visibility Wind Dir Wind Speed Gust Speed Precip Events Conditions
12:15 AM 62.6 °F - 50.0 °F 63% 29.99 in 10.0 mi SSW 15.0 mph 21.9 mph N/A   Overcast
12:35 AM 62.6 °F - 50.0 °F 63% 29.98 in 10.0 mi South 12.7 mph 20.7 mph N/A   Overcast
12:55 AM 62.6 °F - 50.0 °F 63% 29.97 in 10.0 mi South 12.7 mph 18.4 mph N/A   Overcast
1:15 AM 62.6 °F - 51.8 °F 68% 29.97 in 10.0 mi SSW 13.8 mph - N/A Rain Light Rain
1:35 AM 60.8 °F - 53.6 °F 77% 29.99 in 10.0 mi WSW 8.1 mph - 0.02 in Rain Light Rain
1:55 AM 60.8 °F - 53.6 °F 77% 30.01 in 7.0 mi WSW 8.1 mph - 0.06 in Rain Rain
2:15 AM 59.0 °F - 55.4 °F 88% 29.98 in 7.0 mi SSW 9.2 mph - 0.04 in Rain Light Rain
2:55 AM 59.0 °F - 55.4 °F 88% 29.97 in 10.0 mi South 10.4 mph - 0.06 in Rain Light Rain
3:15 AM 59.0 °F - 55.4 °F 88% 29.96 in 10.0 mi South 11.5 mph - 0.01 in Rain Rain
3:35 AM 59.0 °F - 55.4 °F 88% 29.95 in 10.0 mi South 10.4 mph 17.3 mph 0.01 in Rain Light Rain
3:55 AM 59.0 °F - 57.2 °F 94% 29.95 in 7.0 mi South 15.0 mph 18.4 mph 0.04 in Rain Rain
4:15 AM 60.8 °F - 57.2 °F 88% 29.93 in 10.0 mi South 15.0 mph - N/A Rain Light Rain
4:35 AM 60.8 °F - 57.2 °F 88% 29.93 in 10.0 mi SSW 18.4 mph 23.0 mph 0.01 in Rain Rain
4:55 AM 60.8 °F - 57.2 °F 88% 29.93 in 10.0 mi SSW 18.4 mph 25.3 mph 0.02 in Rain Light Rain
5:15 AM 60.8 °F - 57.2 °F 88% 29.93 in 10.0 mi SSW 16.1 mph 24.2 mph N/A   Overcast
5:35 AM 60.8 °F - 59.0 °F 94% 29.93 in 7.0 mi SSW 18.4 mph 27.6 mph N/A Rain Rain
5:55 AM 60.8 °F - 57.2 °F 88% 29.93 in 7.0 mi SSW 16.1 mph 24.2 mph N/A Rain Light Rain
6:15 AM 60.8 °F - 59.0 °F 94% 29.94 in 10.0 mi SSW 17.3 mph 23.0 mph N/A   Overcast
6:35 AM 60.8 °F - 59.0 °F 94% 29.94 in 10.0 mi SSW 16.1 mph 20.7 mph N/A   Light Drizzle
6:55 AM 60.8 °F - 59.0 °F 94% 29.94 in 10.0 mi SSW 16.1 mph 19.6 mph N/A   Light Drizzle
7:15 AM 60.8 °F - 59.0 °F 94% 29.95 in 10.0 mi SSW 15.0 mph 21.9 mph N/A   Overcast
7:35 AM 60.8 °F - 59.0 °F 94% 29.96 in 10.0 mi SSW 16.1 mph 20.7 mph N/A   Overcast
8:15 AM 62.6 °F - 59.0 °F 88% 29.96 in 10.0 mi SW 17.3 mph 23.0 mph N/A   Overcast
8:35 AM 62.6 °F - 59.0 °F 88% 29.97 in 10.0 mi SW 18.4 mph 24.2 mph N/A   Overcast
8:55 AM 62.6 °F - 59.0 °F 88% 29.97 in 10.0 mi SW 11.5 mph - N/A   Overcast
9:15 AM 62.6 °F - 59.0 °F 88% 29.98 in 10.0 mi SW 13.8 mph - N/A   Overcast
9:35 AM 64.4 °F - 59.0 °F 83% 29.98 in 10.0 mi WSW 18.4 mph 23.0 mph N/A   Overcast
9:55 AM 64.4 °F - 59.0 °F 83% 29.99 in 10.0 mi WSW 15.0 mph 24.2 mph N/A   Overcast
10:15 AM 64.4 °F - 59.0 °F 83% 29.98 in 10.0 mi WSW 16.1 mph 20.7 mph N/A   Overcast
10:35 AM 64.4 °F - 57.2 °F 77% 29.99 in 10.0 mi WSW 15.0 mph 25.3 mph N/A   Mostly Cloudy
10:55 AM 64.4 °F - 57.2 °F 77% 29.99 in 10.0 mi WSW 15.0 mph 21.9 mph N/A   Mostly Cloudy
11:15 AM 64.4 °F - 55.4 °F 73% 29.99 in 10.0 mi West 19.6 mph 23.0 mph N/A   Mostly Cloudy
11:35 AM 62.6 °F - 55.4 °F 77% 29.99 in 10.0 mi West 13.8 mph 24.2 mph N/A   Mostly Cloudy
11:55 AM 62.6 °F - 53.6 °F 72% 30.00 in 10.0 mi WSW 20.7 mph 25.3 mph N/A   Scattered Clouds
12:15 PM 62.6 °F - 53.6 °F 72% 29.99 in 10.0 mi West 17.3 mph - N/A   Scattered Clouds
12:35 PM 62.6 °F - 53.6 °F 72% 29.99 in 10.0 mi West 11.5 mph 20.7 mph N/A   Scattered Clouds
12:55 PM 62.6 °F - 53.6 °F 72% 29.99 in 10.0 mi West 13.8 mph 19.6 mph N/A   Clear
1:15 PM 62.6 °F - 53.6 °F 72% 30.00 in 10.0 mi West 17.3 mph 21.9 mph N/A   Clear
1:35 PM 62.6 °F - 53.6 °F 72% 30.00 in 10.0 mi West 11.5 mph - N/A   Clear
1:55 PM 62.6 °F - 53.6 °F 72% 30.00 in 10.0 mi West 11.5 mph 16.1 mph N/A   Scattered Clouds
2:15 PM 62.6 °F - 53.6 °F 72% 30.01 in 10.0 mi West 8.1 mph - N/A   Scattered Clouds
2:35 PM 62.6 °F - 53.6 °F 72% 30.02 in 10.0 mi West 13.8 mph - N/A   Mostly Cloudy
2:55 PM 59.0 °F - 50.0 °F 72% 30.04 in 10.0 mi NW 11.5 mph 23.0 mph N/A   Mostly Cloudy
3:15 PM 59.0 °F - 48.2 °F 67% 30.06 in 10.0 mi WNW 11.5 mph - N/A   Mostly Cloudy
3:35 PM 59.0 °F - 48.2 °F 67% 30.06 in 10.0 mi WNW 9.2 mph 16.1 mph N/A   Overcast
3:55 PM 57.2 °F - 48.2 °F 72% 30.07 in 10.0 mi NNW 16.1 mph 23.0 mph N/A   Overcast
4:15 PM 55.4 °F - 46.4 °F 72% 30.10 in 10.0 mi NW 12.7 mph 21.9 mph N/A   Overcast
4:35 PM 53.6 °F - 46.4 °F 77% 30.10 in 10.0 mi NNW 12.7 mph 18.4 mph N/A   Mostly Cloudy
4:55 PM 53.6 °F - 46.4 °F 77% 30.12 in 10.0 mi NNW 13.8 mph 24.2 mph N/A   Mostly Cloudy
5:15 PM 51.8 °F - 44.6 °F 76% 30.12 in 10.0 mi NNW 12.7 mph 18.4 mph N/A   Mostly Cloudy
5:35 PM 50.0 °F - 42.8 °F 76% 30.14 in 10.0 mi NW 11.5 mph 20.7 mph N/A   Mostly Cloudy
6:15 PM 46.4 °F 39.8 °F 39.2 °F 76% 30.17 in 10.0 mi NNW 16.1 mph 20.7 mph N/A   Mostly Cloudy
6:35 PM 46.4 °F 40.7 °F 37.4 °F 71% 30.18 in 10.0 mi NNW 12.7 mph 25.3 mph N/A   Scattered Clouds
6:55 PM 44.6 °F 39.2 °F 35.6 °F 71% 30.20 in 10.0 mi NNW 10.4 mph - N/A   Clear
7:15 PM 44.6 °F 38.4 °F 35.6 °F 71% 30.22 in 10.0 mi NNW 12.7 mph - N/A   Clear
7:35 PM 44.6 °F 38.8 °F 35.6 °F 71% 30.24 in 10.0 mi NNW 11.5 mph 16.1 mph N/A   Scattered Clouds
7:55 PM 42.8 °F 36.2 °F 33.8 °F 70% 30.24 in 10.0 mi NNW 12.7 mph 21.9 mph N/A   Mostly Cloudy
8:15 PM 42.8 °F 36.6 °F 33.8 °F 70% 30.24 in 10.0 mi NNW 11.5 mph - N/A   Scattered Clouds
8:35 PM 41.0 °F 35.2 °F 32.0 °F 70% 30.28 in 10.0 mi NW 9.2 mph - N/A   Clear
8:55 PM 41.0 °F 35.2 °F 32.0 °F 70% 30.28 in 10.0 mi NNW 9.2 mph 17.3 mph N/A   Clear
9:15 PM 41.0 °F 35.2 °F 32.0 °F 70% 30.28 in 10.0 mi NNW 9.2 mph 16.1 mph N/A   Clear
9:35 PM 41.0 °F 35.2 °F 32.0 °F 70% 30.29 in 10.0 mi NNW 9.2 mph - N/A   Clear
9:55 PM 41.0 °F 34.7 °F 32.0 °F 70% 30.29 in 10.0 mi NNW 10.4 mph 16.1 mph N/A   Mostly Cloudy
10:15 PM 39.2 °F 32.5 °F 32.0 °F 75% 30.29 in 10.0 mi North 10.4 mph - N/A   Scattered Clouds
10:35 PM 39.2 °F 32.5 °F 32.0 °F 75% 30.28 in 10.0 mi North 10.4 mph - N/A   Mostly Cloudy
10:55 PM 39.2 °F 31.6 °F 32.0 °F 75% 30.29 in 10.0 mi North 12.7 mph - N/A   Overcast
11:15 PM 39.2 °F 32.0 °F 32.0 °F 75% 30.30 in 10.0 mi North 11.5 mph - N/A   Overcast
11:35 PM 37.4 °F 27.8 °F 32.0 °F 81% 30.30 in 10.0 mi North 17.3 mph - N/A   Overcast
11:55 PM 37.4 °F 28.2 °F 32.0 °F 81% 30.29 in 10.0 mi North 16.1 mph - N/A   Scattered Clouds